Location: Eurasberg
(48.3353°N, 11.0839°E)
Time: 15:24:35
(UTC+00:00)

Cosmos 1805 Rocket - Pass Details

Date: 18 January 2026
Orbit: 598 x 623 km, 82.5° (Epoch: 18 February)

Event Time Altitude Azimuth Distance (km) Brightness Sun altitude
Rises 05:10:22 0° 209° (SSW) 2,893 6.8 -17.7°
Reaches altitude 10° 05:12:43 10° 218° (SW) 1,990 5.9 -17.3°
Maximum altitude 05:16:50 37° 286° (WNW) 967 4.0 -16.7°
Drops below altitude 10° 05:20:57 10° 355° (N) 1,996 6.0 -16.0°
Sets 05:23:19 0° 4° (N) 2,903 6.9 -15.6°
